Regional Weather Roundup
Issued by NWS San Diego, CA

Home | Current Version | Previous Version | Text Only | Print | Product List | Glossary On
Versions: 1 2 3 4 5 6 7 8 9 10 11 12 13 14 15 16 17 18 19 20 21 22 23 24 25 26 27 28 29 30 31 32 33 34 35 36 37 38 39 40 41 42 43 44 45 46 47 48 49 50
000
ASUS46 KSGX 200711
RWRSGX

SAN DIEGO HOURLY WEATHER ROUNDUP
NATIONAL WEATHER SERVICE SAN DIEGO CA
1200 AM PDT SUN AUG 20 2017

NOTE: "FAIR" INDICATES FEW OR NO CLOUDS BELOW 12,000 FEET WITH NO
SIGNIFICANT WEATHER AND/OR OBSTRUCTIONS TO VISIBILITY.

CAZ042-043-060-061-PZZ750-775-200800-

GREATER SAN DIEGO AREA

CITY           SKY/WX    TMP DP  RH WIND       PRES   REMARKS
SAN DIEGO AP   CLOUDY    69  60  73 N5        29.96F
NATIONAL CITY    N/A     68  62  80 CALM      29.97S
IMPERIAL BEACH CLOUDY    68  60  75 CALM      29.95F
BROWN FIELD    CLOUDY    66  61  84 CALM      29.95F
MIRAMAR MCAS   CLOUDY    68  59  73 CALM      29.95F
MONTGOMERY FLD CLOUDY    69  60  73 NE3       29.96F
GILLESPIE FLD    N/A     66  59  77 NE5       29.96S

$$

NORTH SAN DIEGO COUNTY

CITY           SKY/WX    TMP DP  RH WIND       PRES   REMARKS
CAMP PENDLETON CLOUDY    57  32  38 CALM      29.95S
OCEANSIDE AP   CLOUDY    68  61  78 CALM      29.95S
OCEANSIDE HBR    N/A     66  62  86 SW3       29.98S
VISTA            N/A     65  60  83 CALM      29.93S
CARLSBAD       CLOUDY    66  61  84 S3        29.95S
DEL MAR          N/A     66  62  87 CALM      29.96F
LA JOLLA SCRIP   N/A     66  62  87 W1        29.94F
FALLBROOK        N/A     64  63  99 CALM      29.97R
ESCONDIDO        N/A     65  61  85 CALM      29.96S
POWAY            N/A     65  59  82 CALM      29.96S

$$

EAST SAN DIEGO COUNTY

CITY           SKY/WX    TMP DP  RH WIND       PRES   REMARKS
RAMONA         CLOUDY    62  60  93 CALM      29.97F
SANTEE LAKES     N/A     65  60  85 CALM      29.94S
LA MESA          N/A     65  60  85 CALM      29.89S
JAMUL            N/A     62  60  93 CALM      29.94F
DESCANSO N       N/A     63  39  41 NE2       29.85R
CAMPO            N/A     56  50  80 NE6       29.98S

$$

ORANGE COUNTY AND THE LOS ANGELES BASIN

CITY           SKY/WX    TMP DP  RH WIND       PRES   REMARKS
JOHN WAYNE AP  CLOUDY    68  62  81 SW6       29.95R
LAKE FOREST FR   N/A     65  59  80 W1        29.83R
HUNTINGTON BCH   N/A     66  63  89 W1        29.97R
LOS ALAMITOS   MOCLDY    66  60  81 CALM      29.95R
FULLERTON      MOCLDY    68  61  78 CALM      29.94S
LONG BEACH     CLEAR     67  60  78 CALM      29.95R
L.A. AP        PTCLDY    66  61  84 W7        29.95R
L.A. DOWNTOWN  MOCLDY    68  61  78 CALM      29.94S

$$

THE INLAND EMPIRE

CITY           SKY/WX    TMP DP  RH WIND       PRES   REMARKS
CORONA         CLEAR     65  60  84 W5        29.96R
CHINO          CLEAR     66  60  81 SW5       29.97R
ONTARIO        CLEAR     66  59  78 W7        29.96R
SAN BERNARDINO FAIR      69  58  68 W7        29.96R
RIVERSIDE AP   CLEAR     66  60  81 W7        29.96R
MORENO VALLEY    N/A     68  63  84 CALM      28.06S
MARCH ARB      CLEAR     64  61  90 W5        29.96S
HORSETHIEF CYN   N/A     65  56  71 CALM      29.93S
PERRIS           N/A     65  60  86 SE2       29.95S
HEMET EAST       N/A     66  55  67 CALM      29.95F
FRENCH VALLEY  FAIR      61  57  88 S6        29.97S
TEMECULA         N/A     62  60  93 CALM      30.03S

$$

SAN BERNARDINO AND RIVERSIDE COUNTY MOUNTAINS

CITY           SKY/WX    TMP DP  RH WIND       PRES   REMARKS
BIG BEAR AP    CLEAR     50  37  62 CALM      30.23S
PINE COVE        N/A     62  35  36 CALM      29.84S

$$

SOUTHERN DESERT INCLUDING THE COACHELLA VALLEY

CITY           SKY/WX    TMP DP  RH WIND       PRES   REMARKS
PALM SPRINGS   CLEAR     88  52  29 NW10      29.80R
THOUSAND PALMS   N/A     86  56  35 NW13      29.75S
PALM DESERT      N/A     85  57  38 CALM      31.98S
THERMAL        CLEAR     89  56  32 NW14      29.73R
BLYTHE         CLEAR     92  45  19 W12       29.78S
IMPERIAL AP    CLEAR     84  48  28 W7        29.76R
EL CENTRO NAS  CLEAR     88  39  17 W13       29.78R
YUMA AZ        CLEAR     86  73  65 S10       29.78S
MEXICALI       CLEAR     86  70  58 NE6       29.78R

$$

UPPER DESERT

CITY           SKY/WX    TMP DP  RH WIND       PRES   REMARKS
VICTORVILLE AP CLEAR     72  39  30 CALM      29.97S
HESPERIA         N/A     74  50  43 W5        29.92S
PALMDALE       CLEAR     79  40  24 SW15      29.94S
LANCASTER      CLEAR     76  46  34 W14       29.92S
EDWARDS AFB    CLEAR     76  46  34 SW12      29.89S
DAGGETT        CLEAR     82  51  34 NW10      29.87S
29 PALMS N     CLEAR     86  45  23 VRB5      29.95R
NEEDLES        CLEAR     95  47  19 W10       29.78S

$$

REGIONAL REPORTS

CITY           SKY/WX    TMP DP  RH WIND       PRES   REMARKS
SANTA BARBARA  CLOUDY    64  61  90 W3        29.93S
SANDBERG       CLEAR     65  51  60 S8        30.09S
LAS VEGAS NV   CLEAR     91  42  18 S8        29.86S
PHOENIX AZ     PTCLDY    94  51  23 W8        29.82R
TIJUANA        CLOUDY    66  61  82 CALM      29.98S
ENSENADA NW      N/A     67  32  27 CALM      29.93S

$$

OFFSHORE ISLANDS

CITY           SKY/WX    TMP DP  RH WIND       PRES   REMARKS
CATALINA ARPT  CLOUDY    59  59 100 S3        29.98S FOG
SAN NICOLAS IS CLOUDY   N/A N/A N/A SW3       29.95S

$$

MARINE AND OFFSHORE BUOY REPORTS

STATION/POSITION SKY/WX   TEMP    WIND        PRES    VSBY  SWELL
                          AIR SEA DIR/SP/G                  HT/PER/DIR
                          (F)     (DEG/KT/KT) (MB)    (MI)  (FT/S/D)
TANNER BANKS               65 66  290/  6/  8 1013.9F         5/200/15
S CLEMENTE BASIN           66 71  300/  4/  6 1014.4S         3/200/14
SAN NICOLAS IS.               65                N/A           3/300/11
SO. S. ROSA ISLA           63 64  260/  4/  4 1013.6R         5/290/10
W. S. BARBARA CH           63 64  220/  2/  4 1013.2R         5/300/11
M. S. BARBARA CH           62 63  280/  4/  6 1014.5R         2/260/11
S. MONICA BASIN               72  230/  4/  8 1013.6S         2/190/15
S PEDRO CHANNEL               71                N/A           2/190/15
CMP PENDLETON NS              69                N/A           2/220/15
OCEANSIDE OFFSHR              70                N/A           2/200/15
TORREY PINES OTR              71                N/A           2/200/14
SAN DIEGO BAY                 73              1014.6F
POINT LOMA SOUTH              70                N/A           3/200/14

$$





USA.gov is the U.S. government's official web portal to all federal, state and local government web resources and services.